Theta_e
340 340 340 342 342 342 343 343 343 343 343 343 343 342 342 340 340 340 340 339 337 336 337 338 338 339 339 339 338 338 338 337 337 337 336 334 333 331 330 330 331 332 332 331 331 333 334 334 333 332 331 331 331 331 331 330 329 328 329 330 330 329 328 328 330 331 332 332 332 333 332 330 329 329 330 331 330 331 331 332 331 330 331 329 329
339 339 340 341 342 342 342 342 342 342 342 343 342 342 342 340 340 340 340 340 338 336 336 337 338 338 339 339 338 337 336 335 335 335 335 333 331 329 329 330 330 331 331 331 331 333 333 333 333 332 331 331 332 332 332 331 329 328 329 330 330 329 328 328 330 331 332 333 332 332 332 331 330 329 330 331 330 331 331 331 331 331 331 330 329
337 337 338 340 340 340 340 341 340 340 340 340 340 340 340 340 339 339 339 338 337 335 335 336 337 338 338 338 337 336 335 334 334 333 332 331 330 330 331 332 331 330 331 330 331 332 333 333 334 333 332 331 331 332 332 331 330 329 330 330 330 329 328 327 329 330 331 332 332 332 332 332 330 330 330 330 330 330 330 331 331 331 331 330 330
335 334 335 337 338 338 338 338 338 338 339 338 338 338 338 338 337 337 337 336 335 335 333 333 335 336 337 337 336 335 335 334 334 333 332 331 331 331 332 332 332 331 331 331 331 332 333 334 334 333 333 332 331 330 331 332 331 330 330 330 329 328 328 327 328 329 330 332 332 331 332 332 331 331 330 330 330 330 330 331 331 331 330 330 330
333 332 333 334 336 336 335 335 336 337 336 336 336 336 336 336 336 336 336 335 335 335 333 333 334 336 337 337 336 336 336 335 334 334 333 332 331 331 332 332 332 332 332 332 333 333 334 334 333 333 333 333 332 330 330 331 332 331 331 330 329 328 327 327 327 329 330 331 331 331 331 331 332 331 331 330 330 330 330 330 331 331 331 330 329
331 331 331 331 332 332 333 334 335 334 334 333 333 334 334 334 335 335 335 335 335 334 334 334 335 337 337 337 337 337 337 336 334 333 333 333 332 332 332 332 333 333 334 334 334 334 334 334 334 333 333 333 333 331 330 330 331 332 331 331 329 328 327 327 327 328 331 332 331 331 330 331 331 331 332 331 331 331 330 330 331 331 331 330 328
330 330 330 329 329 330 330 331 331 331 331 331 332 332 333 333 333 334 334 334 335 334 333 335 336 337 337 337 337 337 336 336 335 334 333 333 332 333 333 333 334 334 334 334 334 334 334 334 334 334 333 333 332 332 331 330 330 331 332 331 329 328 328 327 326 327 330 331 331 331 331 331 331 331 332 331 331 332 331 331 331 331 331 330 329
329 328 328 328 328 328 328 328 328 328 329 329 330 331 331 332 332 333 333 333 334 333 333 334 335 334 334 334 335 336 336 336 336 335 334 334 334 334 334 334 334 334 334 334 334 334 334 334 334 334 333 333 332 332 332 331 330 331 332 331 330 329 328 326 325 327 330 331 330 331 331 331 331 331 331 331 332 332 331 331 331 331 330 330 330
327 326 326 327 326 326 326 326 326 327 326 326 327 328 329 329 330 330 331 331 332 332 333 333 333 333 333 333 334 335 336 336 336 336 335 335 335 335 335 334 334 334 333 333 333 333 334 334 334 334 333 333 332 332 332 332 331 331 332 331 330 329 328 327 326 327 329 330 330 330 330 330 330 330 331 332 332 332 332 331 331 331 331 330 330
325 325 325 325 325 325 325 325 324 324 324 324 325 325 326 327 327 328 329 330 330 330 331 331 331 332 332 333 334 334 334 334 334 334 334 335 335 335 334 333 334 333 333 334 333 332 332 333 333 333 333 332 332 332 332 332 331 331 332 331 331 329 328 328 327 327 328 329 330 331 330 329 329 330 330 331 331 331 331 331 331 331 331 330 329
324 324 324 324 323 324 323 323 323 323 323 323 323 323 324 325 325 325 327 328 328 329 329 330 330 331 331 332 332 332 332 332 332 332 332 333 334 334 334 333 333 333 333 334 334 333 331 330 332 332 332 332 332 332 332 332 331 331 331 331 331 330 329 329 328 326 327 327 328 330 330 329 329 329 329 330 331 331 331 331 331 331 331 331 330
323 322 322 322 322 322 322 322 321 322 322 322 322 322 322 323 323 324 324 325 326 327 328 328 329 330 331 332 332 332 332 331 332 332 333 334 334 334 334 333 332 332 332 332 333 333 329 328 331 332 332 331 331 331 331 331 331 331 331 331 331 330 329 329 328 327 327 326 327 329 330 330 330 329 328 329 330 331 331 330 330 331 331 331 330
322 321 321 321 321 321 321 321 320 320 321 321 321 321 321 322 322 323 322 323 324 326 326 326 327 327 328 330 330 330 331 331 332 332 333 334 334 334 333 332 332 331 330 331 331 331 329 327 328 329 331 331 330 330 330 330 330 331 332 331 331 329 328 328 327 327 327 327 328 329 328 329 330 330 329 330 330 330 331 331 330 330 331 331 331
320 320 320 320 320 320 319 319 319 319 320 320 320 320 321 321 321 321 321 322 323 324 324 324 325 325 326 327 326 327 328 329 330 331 332 333 333 333 333 332 331 330 330 330 330 330 330 328 326 326 328 329 329 329 329 329 330 331 333 332 331 330 329 328 328 327 328 328 328 329 327 326 328 330 331 330 330 330 331 331 330 330 330 330 331
319 319 319 319 318 318 318 318 318 318 319 319 319 319 319 320 320 320 321 321 322 322 322 322 322 323 323 324 325 325 326 327 327 329 330 331 332 332 332 331 331 331 331 330 329 329 329 329 328 326 326 327 329 329 329 330 331 331 333 333 332 331 329 328 328 329 329 328 328 328 325 324 326 329 330 330 329 330 331 331 330 329 330 331 331
318 318 318 317 317 317 317 317 317 317 318 318 318 318 318 319 319 319 320 320 320 321 321 321 321 320 321 322 322 323 324 326 327 328 329 330 330 331 331 332 331 331 330 330 329 329 328 328 328 327 326 327 329 329 329 330 331 332 332 331 330 330 329 328 328 329 329 329 328 327 326 326 327 329 329 329 329 329 330 331 330 329 330 331 331
317 317 317 316 316 317 316 317 317 317 317 318 318 318 318 318 318 319 319 319 319 320 320 320 319 319 320 320 320 320 321 322 324 326 327 328 329 329 330 330 330 330 330 330 330 329 329 328 327 327 327 328 329 329 329 329 330 331 332 331 330 330 330 329 329 329 330 329 327 327 327 328 328 329 329 329 329 329 329 330 330 329 329 330 331
316 316 316 316 316 316 316 316 316 317 317 317 318 317 317 318 318 319 318 318 319 319 319 319 319 318 319 320 319 319 320 320 320 321 323 325 326 327 328 328 329 330 330 330 330 330 329 329 328 327 328 328 328 329 329 329 330 331 331 330 330 330 330 330 330 330 330 329 327 327 327 328 328 329 329 329 329 329 329 330 329 329 329 329 330
315 315 315 315 316 316 316 316 316 316 317 317 317 317 317 317 318 318 317 317 317 318 318 318 318 317 318 319 319 319 319 318 318 318 319 320 321 322 324 326 327 329 329 330 330 330 330 330 330 329 328 328 327 327 327 328 330 330 329 330 330 330 331 331 330 331 330 329 329 328 327 328 328 329 329 328 329 329 329 330 329 330 330 329 329
315 315 315 315 315 316 316 316 316 316 316 316 316 316 316 316 316 317 317 317 316 317 317 317 317 317 317 317 318 318 318 317 317 317 318 318 319 319 320 322 323 325 328 329 330 330 330 330 330 330 329 329 328 328 328 329 330 329 329 329 330 331 332 332 331 331 330 329 329 328 328 328 328 328 328 328 328 328 329 329 329 329 330 330 330
314 315 314 315 315 316 316 316 316 315 315 316 315 315 315 315 315 315 316 316 316 316 316 316 316 316 316 316 316 316 316 316 317 317 316 317 318 318 319 320 320 321 323 326 328 329 330 330 330 330 330 329 329 330 330 330 331 330 329 329 329 330 331 331 332 330 330 329 329 328 328 328 328 327 326 327 327 328 329 329 329 328 328 329 330
314 314 314 315 315 315 315 315 315 314 314 314 314 314 314 314 314 314 314 315 315 315 316 316 315 315 315 315 315 315 315 316 316 316 315 315 316 316 317 318 319 320 320 321 323 325 328 329 329 329 329 329 329 328 329 330 330 331 330 329 329 330 330 330 331 331 330 330 329 329 328 327 327 326 326 327 327 328 329 329 329 328 328 330 330
314 314 314 314 314 314 314 314 314 314 313 313 313 314 313 313 313 314 314 314 314 314 315 315 314 314 314 314 314 314 314 314 314 314 314 314 314 314 314 315 316 318 319 320 320 321 323 326 328 328 328 328 328 327 327 328 329 329 330 330 329 330 330 329 330 330 330 330 329 329 328 327 327 327 327 327 327 328 328 329 329 328 328 330 331
313 314 314 314 314 313 313 313 313 313 313 313 313 313 313 313 313 313 313 313 313 314 314 314 313 313 313 313 313 313 313 313 313 313 313 313 312 312 313 313 314 315 316 318 319 320 320 322 325 327 328 328 328 328 327 328 329 328 329 329 329 329 328 329 329 330 330 330 329 329 329 329 328 328 328 327 327 327 328 328 328 327 327 330 330
313 313 314 314 314 313 313 313 313 313 313 313 312 312 312 312 312 312 312 313 313 313 313 313 313 313 312 312 312 312 312 312 312 312 312 312 312 312 312 311 312 313 314 315 317 318 319 320 322 324 326 327 328 328 329 329 329 328 329 329 329 329 328 329 329 329 329 330 329 329 330 330 330 329 327 327 327 327 327 327 328 327 327 329 330
313 313 313 313 313 313 313 313 313 313 312 312 312 312 312 311 311 312 312 312 312 312 312 312 312 312 312 311 311 311 311 311 311 311 311 311 311 311 311 311 311 312 312 313 314 315 316 318 319 322 324 326 327 327 328 329 329 329 329 329 330 330 329 329 329 330 330 329 329 329 330 330 330 329 328 327 327 328 328 328 328 328 328 330 330
313 312 312 312 312 312 312 312 312 312 311 311 311 311 311 311 311 311 311 311 311 311 312 311 311 311 311 311 310 310 310 310 310 310 310 309 309 309 310 310 310 311 311 312 312 313 314 315 317 319 321 323 325 326 327 328 328 328 328 329 330 329 329 329 330 330 330 329 329 329 329 330 330 329 328 328 329 328 328 329 329 329 328 329 330
312 312 312 311 311 311 311 310 311 311 310 310 310 310 310 310 310 310 311 311 311 311 311 311 310 310 310 310 310 309 309 309 309 309 308 308 308 308 309 309 310 310 310 311 312 312 312 313 314 316 318 321 323 324 326 327 327 327 328 329 329 328 328 328 329 329 329 329 328 328 329 329 330 328 326 328 329 329 328 328 329 328 326 327 329
312 311 311 311 310 310 310 310 310 310 310 310 310 310 310 309 310 310 310 310 310 310 310 310 309 309 309 309 309 309 309 308 308 308 308 308 307 307 308 308 308 308 309 310 311 312 312 312 313 314 316 319 321 322 324 325 326 326 327 328 329 329 328 328 328 329 329 329 328 327 328 328 329 328 326 327 329 329 328 328 328 327 325 327 328
311 311 310 310 310 309 309 309 309 309 309 309 309 309 309 309 309 309 309 309 309 309 309 309 308 308 308 308 308 308 308 308 308 308 307 307 307 307 307 307 307 307 307 309 310 311 311 311 312 313 314 316 319 321 323 324 324 324 325 327 328 329 328 328 328 328 328 327 327 327 327 327 329 329 327 326 328 329 328 328 329 327 326 328 328
310 310 310 309 309 309 308 308 308 308 308 308 308 308 308 308 308 308 309 309 308 308 308 308 307 307 307 307 307 307 307 307 307 307 307 307 306 306 306 306 306 306 306 307 307 308 309 310 311 311 312 313 315 318 320 322 322 323 324 325 327 328 329 328 328 328 328 328 327 327 327 327 328 330 329 328 328 328 328 329 329 327 326 327 328
310 309 309 309 308 308 308 308 308 308 308 308 308 308 308 308 308 308 308 308 308 308 307 307 307 307 307 307 307 307 307 307 307 306 306 306 306 305 305 305 305 304 304 305 305 306 307 308 309 310 310 311 312 314 316 318 320 321 323 324 326 327 328 328 328 329 329 328 327 326 326 325 325 328 329 329 328 327 328 328 329 328 327 328 328
309 308 308 308 307 307 307 307 307 307 307 307 307 308 307 307 307 307 307 307 307 307 307 307 306 306 306 306 306 306 306 306 306 306 306 306 305 305 304 304 304 304 304 304 304 304 304 305 307 308 309 309 310 311 313 315 318 320 322 324 325 326 327 328 328 328 328 327 327 327 327 326 325 325 327 329 328 327 328 328 328 328 329 329 329
308 307 307 307 307 307 307 307 307 307 307 307 307 307 307 307 307 307 307 307 307 306 306 306 306 306 306 306 306 305 305 305 305 305 305 305 305 304 303 303 303 303 303 303 303 302 303 303 305 306 307 307 308 310 311 313 315 318 320 322 323 324 326 327 328 328 327 327 327 327 326 325 324 325 326 328 328 328 328 329 329 329 329 329 328
307 307 307 306 306 306 306 306 306 306 306 306 306 306 307 307 306 306 306 306 306 306 306 305 305 305 305 305 305 305 305 305 305 305 304 304 304 304 303 303 303 303 302 302 302 302 302 302 303 304 305 306 307 309 311 312 313 315 317 319 322 323 325 326 327 328 328 327 327 327 326 324 324 325 326 327 328 327 328 328 329 329 329 329 328
307 306 306 306 306 306 306 306 306 306 306 306 306 306 306 306 306 306 306 305 305 305 305 305 305 305 305 304 304 304 304 304 304 304 304 304 303 303 303 303 303 302 302 302 302 302 302 301 302 302 302 303 305 307 310 311 312 314 316 318 319 321 323 325 326 326 327 327 327 327 326 326 325 326 327 327 326 326 327 328 328 327 327 327 327
306 306 306 306 305 306 306 306 306 305 305 305 305 305 305 305 305 305 305 305 305 305 304 304 304 304 304 304 304 304 304 304 303 303 303 303 303 302 302 303 302 302 302 301 301 301 301 301 301 301 301 301 302 304 308 310 311 312 314 316 318 320 321 323 324 325 325 326 326 326 327 326 326 326 327 327 326 325 326 327 327 326 326 327 327
306 306 305 305 305 305 305 305 305 305 305 305 305 305 305 305 304 305 304 304 304 304 304 304 304 304 304 303 303 303 303 303 303 303 303 303 302 302 302 302 302 302 302 301 300 300 300 300 301 301 300 300 301 302 305 308 310 311 312 314 316 318 320 321 322 323 324 325 326 326 326 326 326 325 325 326 327 326 325 325 326 326 326 326 326
305 305 305 305 305 305 305 305 305 304 304 304 304 304 304 304 304 304 304 303 303 303 303 303 303 303 303 303 303 303 303 303 302 302 302 302 302 301 301 301 302 302 302 301 300 300 300 300 301 301 301 300 300 301 303 305 308 309 310 312 313 314 317 318 320 321 322 323 325 326 326 325 324 324 325 327 327 325 324 325 327 327 326 325 325
305 305 305 305 304 304 304 304 304 304 304 304 304 303 303 303 303 303 303 303 303 303 303 303 303 303 303 303 303 302 302 302 302 302 302 302 301 301 301 301 301 301 301 300 300 300 300 299 300 300 300 300 300 300 301 302 305 307 308 309 310 311 312 314 316 318 320 321 323 325 326 325 324 324 326 327 326 324 324 326 327 325 324 323 323
304 304 304 304 304 304 304 304 304 303 303 303 303 303 303 303 303 302 302 303 302 302 302 302 302 302 302 302 302 302 302 302 301 301 301 301 301 300 300 300 300 300 300 300 300 300 299 299 299 299 300 300 300 300 300 301 302 304 306 307 309 309 309 310 312 314 317 319 321 322 323 324 325 325 326 326 326 325 325 326 324 323 321 320 319
304 304 304 304 304 304 304 303 303 303 303 303 302 302 302 302 302 302 302 302 302 302 302 302 302 302 302 302 302 302 302 302 301 301 301 301 301 300 300 300 300 300 300 300 299 299 299 299 299 299 299 299 300 300 300 301 301 302 303 305 306 307 307 308 309 311 313 314 315 316 317 320 324 326 325 325 326 325 324 324 323 322 320 318 317
304 304 304 304 303 304 304 303 303 303 303 302 302 302 302 302 302 302 302 301 302 302 301 301 301 301 301 301 301 302 302 302 301 301 301 300 300 300 299 299 299 299 300 299 299 299 299 299 298 299 299 298 299 299 300 300 300 301 301 302 303 305 306 306 307 308 308 308 310 311 312 314 320 324 324 325 325 324 322 323 323 321 319 318 318
304 304 303 303 303 303 303 303 303 303 303 302 302 302 302 301 301 302 301 301 301 301 301 301 301 300 301 301 300 301 302 302 301 301 301 301 300 300 299 299 299 299 299 299 299 299 299 299 298 298 298 298 298 298 299 299 300 300 300 301 301 302 304 305 305 305 306 306 307 308 309 311 315 320 322 323 322 322 321 321 320 319 318 317 318
303 303 303 303 303 303 303 303 303 303 303 302 302 302 302 301 301 301 301 301 301 301 301 301 301 300 300 300 300 300 301 301 300 300 300 300 300 300 299 299 299 299 299 299 299 299 299 298 298 298 297 297 297 297 297 298 298 299 299 300 300 301 302 303 303 304 304 305 306 307 308 310 312 316 318 319 318 319 320 319 317 317 316 315 315
303 302 302 302 302 302 303 303 303 303 303 302 302 302 302 302 302 302 301 301 301 301 301 300 300 300 300 300 300 300 300 301 300 299 300 300 300 300 299 299 299 298 298 298 299 298 299 298 298 297 297 297 297 297 297 297 297 297 298 299 300 300 301 301 302 302 302 304 306 307 308 309 309 311 314 315 315 315 316 317 315 314 313 312 312
303 303 303 302 302 302 302 302 302 302 302 302 302 302 302 302 302 302 301 301 301 301 301 300 300 300 300 300 299 299 300 300 300 299 299 300 300 299 299 299 298 298 298 298 298 298 298 299 298 297 297 297 297 297 297 296 296 296 297 297 299 299 300 300 301 301 301 302 304 305 307 308 308 309 310 311 312 312 312 312 312 311 310 310 310
302 302 302 302 302 302 302 302 302 301 302 302 303 302 302 302 302 301 301 301 301 300 300 300 300 299 299 299 299 299 299 300 300 299 299 299 299 299 299 299 298 298 298 298 298 297 297 298 298 298 297 297 297 297 296 296 296 296 296 296 297 298 299 299 300 300 300 301 302 303 305 306 307 307 307 308 308 309 308 308 309 309 309 308 308
302 302 302 302 302 302 302 301 301 301 302 303 303 302 302 302 302 301 301 301 301 300 300 300 300 299 300 300 299 299 299 299 300 299 299 299 299 299 299 299 298 298 298 298 298 298 297 297 297 297 297 297 297 296 296 296 296 296 296 296 296 297 298 298 298 299 300 301 301 302 303 303 304 304 305 305 305 305 305 305 305 306 306 305 305
301 302 302 301 302 302 301 301 301 301 301 302 303 302 302 302 302 301 301 301 301 300 300 300 300 299 299 300 300 299 299 299 299 299 299 299 299 299 299 299 298 298 298 298 298 298 298 297 297 297 297 297 296 296 296 295 295 296 296 296 295 296 297 297 297 298 299 300 300 301 301 301 301 302 302 302 302 302 302 302 302 302 303 302 302
301 301 301 301 301 301 301 301 301 300 301 301 302 302 302 302 301 301 301 301 301 300 300 300 300 300 300 300 300 300 299 299 299 299 299 299 299 299 299 299 298 298 298 298 298 298 297 297 297 297 297 296 296 295 295 295 295 296 296 296 296 296 296 297 297 297 298 298 298 298 299 299 300 300 300 300 300 301 301 301 301 301 302 302 301
Wind_Speed
12 10 8 7 9 8 7 8 7 6 6 7 7 7 8 7 4 3 2 2 2 2 2 2 3 3 4 7 8 11 12 11 11 12 11 10 10 10 12 14 16 16 15 14 15 16 16 16 17 17 18 22 23 23 21 20 20 21 23 25 25 26 25 23 22 21 20 19 17 15 15 14 14 15 15 15 15 15 15 13 13 13 13 12 13
15 13 13 12 11 10 8 8 8 7 7 8 9 7 7 8 5 3 2 1 1 1 2 1 2 3 4 6 8 9 10 10 11 10 10 10 10 13 15 16 16 16 17 17 17 18 18 18 18 19 20 22 24 24 24 23 23 23 24 25 26 26 24 22 22 22 21 20 18 16 15 15 15 16 16 17 16 16 16 14 14 15 14 12 12
15 13 14 14 14 15 13 12 12 10 9 8 8 7 5 5 4 3 2 1 3 2 1 3 5 4 4 5 6 7 7 8 9 10 11 11 12 14 15 15 15 16 17 17 18 19 19 19 19 19 21 22 23 25 26 26 25 24 24 25 25 25 24 23 24 25 23 20 18 17 15 15 16 17 18 18 17 17 17 16 15 16 15 13 12
14 12 11 11 13 14 14 13 12 10 8 7 6 5 3 3 3 1 2 3 3 4 4 4 3 2 3 4 5 6 7 8 8 9 11 12 12 13 14 15 14 15 16 17 19 20 20 20 19 20 22 23 23 25 27 27 26 25 25 25 25 25 25 24 24 27 26 21 18 17 15 15 15 16 19 19 18 18 19 17 17 16 15 15 14
14 13 11 9 10 10 10 9 9 8 7 7 6 5 4 4 5 3 4 4 4 5 6 3 0 0 3 5 5 6 7 8 9 9 10 11 11 12 14 14 14 14 15 17 18 18 19 20 20 21 22 23 24 25 26 27 27 27 26 25 25 25 24 24 25 27 27 23 20 18 15 14 15 13 13 17 18 18 19 19 19 17 16 16 16
13 13 12 11 9 8 9 7 7 7 7 7 5 5 5 4 5 4 3 2 3 4 5 3 1 2 3 5 6 6 7 8 10 10 11 11 12 12 13 14 15 15 15 17 18 18 20 21 21 22 22 23 24 25 27 28 29 28 27 26 25 25 24 24 26 26 27 26 24 22 18 16 15 13 11 13 15 18 19 20 19 17 16 17 18
13 13 13 13 11 9 9 8 7 6 5 5 4 3 5 4 4 3 2 2 2 2 2 3 2 2 3 4 5 6 8 9 10 11 12 13 13 13 14 15 15 16 17 17 18 19 20 21 22 23 23 24 24 26 27 28 29 28 27 26 25 25 25 25 26 25 27 29 27 26 23 18 14 13 14 12 13 17 19 20 19 18 18 17 18
13 14 14 14 13 11 10 9 9 6 6 5 4 4 4 3 3 2 2 0 1 1 0 2 3 3 3 5 5 6 7 9 10 11 12 13 14 14 13 14 15 16 17 18 18 19 19 20 22 24 25 25 25 26 27 27 29 30 29 28 27 27 26 25 25 25 27 28 28 28 25 20 16 13 13 13 13 15 18 21 20 19 19 18 17
13 15 14 13 13 13 11 10 8 7 7 7 6 6 4 3 2 1 3 3 2 1 1 1 2 3 4 6 7 7 7 9 10 10 11 12 14 14 14 15 17 17 18 19 19 19 20 21 23 25 25 26 26 27 27 27 28 30 30 30 29 26 25 25 24 25 26 26 25 27 26 23 21 17 14 15 15 14 15 19 21 20 19 19 19
14 14 14 13 13 13 12 11 10 9 9 8 8 7 5 5 4 1 2 5 5 4 3 3 3 3 5 7 9 10 10 11 12 12 12 12 13 15 16 17 17 17 17 18 20 20 21 22 23 24 24 24 24 25 26 27 29 30 29 30 30 27 25 25 25 25 26 24 22 24 25 25 26 22 18 17 18 16 13 16 19 21 21 20 20
13 13 13 13 13 12 11 12 12 11 10 9 8 8 7 7 8 7 4 3 3 3 4 4 4 4 5 7 9 10 11 12 13 13 12 11 13 15 16 18 17 17 18 19 20 20 20 22 20 19 20 21 21 22 24 25 27 28 29 30 31 29 27 26 26 25 25 25 24 24 24 25 27 26 23 20 20 18 16 16 18 20 21 20 20
12 12 12 11 12 13 11 12 12 12 11 11 10 10 10 10 10 10 9 7 6 3 1 2 3 4 6 7 8 10 10 10 11 11 11 11 13 15 16 17 18 18 19 20 21 20 20 21 19 17 18 19 20 21 22 22 23 25 28 30 30 30 29 27 27 27 28 29 28 26 25 24 24 26 25 23 22 20 18 18 18 19 21 19 19
12 12 12 11 11 11 11 11 11 12 12 11 11 11 11 12 12 12 11 9 8 7 6 5 3 4 5 7 8 10 9 9 10 11 11 11 13 15 16 18 20 20 20 20 20 20 20 20 20 19 18 19 19 21 21 21 21 23 26 27 27 28 29 28 28 28 29 30 29 29 28 26 24 24 26 25 24 22 20 18 17 19 22 20 18
12 11 11 11 10 10 10 11 11 12 12 12 12 11 11 12 12 12 13 12 11 9 9 8 7 6 6 6 8 10 10 10 11 11 11 11 12 14 16 18 20 22 20 19 18 19 20 20 20 21 20 20 19 20 22 21 20 22 25 25 25 27 28 28 29 28 29 29 28 29 29 29 26 26 27 26 25 24 22 20 17 18 21 20 17
12 11 10 9 9 9 10 10 11 11 12 12 12 12 13 13 12 13 13 13 14 15 15 13 11 11 10 9 9 9 11 12 12 11 11 11 11 12 14 17 19 19 19 19 19 20 20 19 20 21 22 22 21 20 21 21 20 21 25 26 26 26 27 27 28 29 30 29 28 29 29 29 28 27 27 26 26 25 23 21 19 18 19 18 17
11 10 9 9 9 10 10 10 10 10 12 13 13 13 13 12 14 14 12 12 14 15 14 15 16 16 16 17 15 12 12 12 12 12 12 13 13 12 12 15 17 17 18 19 18 18 20 20 20 21 22 23 22 21 22 22 21 22 24 27 27 26 26 26 27 30 31 30 29 29 29 29 29 28 27 26 26 26 24 23 20 19 19 19 18
10 9 9 9 9 10 10 10 9 10 12 12 12 12 12 13 16 14 13 12 11 12 12 12 16 16 15 18 20 17 15 14 13 14 15 16 17 15 14 14 15 16 17 17 17 17 18 19 21 22 22 23 23 22 23 23 23 24 26 27 27 26 27 27 27 29 31 32 31 30 30 30 29 29 28 27 27 26 25 24 22 20 21 21 21
9 8 9 9 9 9 9 10 10 10 11 12 12 12 11 15 16 12 13 13 11 15 14 13 17 15 13 16 20 19 18 18 17 17 17 17 18 18 18 18 17 16 16 16 16 17 18 19 20 22 22 23 22 22 23 23 23 26 27 27 27 27 28 29 28 28 30 31 30 30 30 30 29 29 28 27 27 26 24 23 22 21 20 21 21
9 8 9 9 9 9 9 10 11 11 12 12 12 12 12 13 11 10 13 14 14 18 15 13 18 18 12 13 15 16 18 20 20 20 18 18 19 19 19 19 19 19 18 17 16 16 18 19 20 22 22 23 23 21 22 23 23 24 26 25 25 25 27 29 28 28 30 30 30 29 29 29 29 28 28 28 27 26 24 24 23 22 22 22 20
9 8 8 8 9 10 11 11 12 12 12 12 11 12 12 11 10 11 14 13 13 17 15 10 13 16 14 12 13 14 17 19 21 23 21 20 20 20 19 19 18 19 19 19 18 16 17 19 21 22 22 24 24 21 21 23 22 21 23 24 23 24 27 29 28 28 30 30 30 29 29 29 29 29 28 28 28 27 26 26 26 24 24 22 19
8 8 8 9 10 11 11 11 12 12 12 12 11 12 13 13 13 13 14 13 13 16 16 13 13 15 16 17 17 16 16 18 21 23 23 22 22 22 21 20 19 19 19 20 20 19 19 19 21 22 22 24 25 24 23 23 22 21 21 23 23 25 27 28 28 28 29 29 29 29 29 29 29 30 29 28 28 27 26 27 27 26 24 22 22
8 8 8 9 10 11 11 11 12 12 12 12 12 13 14 14 15 15 16 16 15 16 17 16 15 17 17 18 19 19 18 19 20 21 22 23 22 22 23 22 21 21 21 20 20 21 21 20 20 22 23 24 25 26 24 23 23 23 22 23 24 26 27 28 28 28 29 29 29 28 29 30 30 30 30 29 28 28 27 27 28 28 26 25 26
9 9 9 10 11 11 11 11 11 12 12 13 13 13 14 15 16 17 17 17 17 18 17 17 18 19 19 20 20 20 20 21 21 22 23 23 23 23 24 24 23 22 22 22 21 20 19 19 19 20 22 22 23 25 24 24 25 24 24 24 24 25 26 27 28 28 27 28 28 28 28 29 29 30 30 29 29 29 29 28 29 30 29 27 27
10 10 10 10 11 12 12 12 11 11 12 13 14 15 16 17 17 17 18 18 18 19 18 19 20 21 21 21 21 19 20 22 23 23 24 24 25 25 25 25 25 23 22 22 22 22 21 18 18 19 20 20 21 22 24 24 24 24 25 25 25 25 26 25 27 29 28 26 27 28 28 28 29 30 29 28 29 30 31 31 31 30 30 29 28
13 12 12 12 12 12 12 12 12 12 13 14 15 16 17 18 18 19 19 19 19 19 20 20 21 20 21 22 22 21 21 23 24 25 25 24 25 26 26 27 27 25 24 22 22 24 24 21 18 18 20 20 20 23 24 24 24 24 25 25 24 25 26 26 27 29 29 29 30 30 28 28 28 29 28 28 29 30 31 32 31 30 30 30 29
13 12 12 12 11 12 12 13 12 12 14 14 15 16 17 18 19 19 19 19 19 20 20 20 20 20 21 23 23 23 23 23 24 25 25 25 25 26 27 27 27 27 27 25 24 24 26 25 21 18 19 19 20 22 23 23 23 24 25 26 25 24 25 25 27 29 28 29 31 32 30 28 28 28 28 28 29 30 31 31 30 29 28 27 27
13 12 12 12 12 12 13 13 12 13 15 15 15 16 17 19 19 20 19 18 19 19 19 19 20 20 21 23 23 23 24 24 24 24 25 25 25 26 27 28 27 27 28 28 27 26 25 26 24 20 19 19 19 20 21 21 21 21 21 23 25 26 25 24 26 27 26 26 28 30 30 29 28 27 27 28 30 31 31 32 31 29 28 27 27
13 12 12 12 12 12 12 12 12 12 14 15 16 16 18 19 19 19 19 18 18 19 19 19 19 20 21 22 22 22 23 24 25 25 25 26 26 26 27 27 27 28 29 29 28 28 27 26 25 22 20 20 20 21 21 22 22 22 21 20 21 23 25 24 24 24 23 24 26 27 29 30 29 27 26 29 32 32 31 31 30 29 28 27 28
12 12 12 11 12 11 11 12 12 12 14 14 15 17 18 19 18 18 18 18 18 18 18 18 19 20 21 21 21 22 22 24 25 26 27 27 26 27 27 27 28 29 30 30 29 28 28 27 25 22 20 19 20 23 24 24 24 24 23 22 20 21 23 25 26 26 25 25 26 26 27 29 29 27 26 28 31 32 31 30 29 29 29 27 28
12 12 12 11 11 11 11 11 12 13 14 14 15 17 18 18 17 17 18 18 18 17 18 18 19 20 20 20 21 22 23 24 25 26 27 27 27 27 28 28 28 29 31 32 31 31 31 30 28 25 22 19 19 23 25 26 27 27 25 25 24 23 24 25 27 27 26 26 26 25 26 28 29 28 27 28 30 32 31 29 29 30 30 28 29
12 12 11 10 11 11 11 11 12 13 14 15 16 16 17 17 17 17 17 17 17 17 18 18 19 19 20 21 22 23 23 24 25 25 26 27 27 27 28 28 29 30 31 32 33 34 35 35 32 30 26 21 20 22 25 27 28 29 28 27 26 25 25 26 27 26 26 24 22 23 24 26 27 28 28 29 30 31 30 28 29 30 30 29 29
12 11 11 10 10 10 11 11 12 13 14 15 15 15 16 16 16 16 16 16 17 18 19 19 20 20 21 22 22 23 23 24 25 26 26 26 26 27 28 28 29 30 31 32 32 33 36 38 37 35 31 27 24 23 24 26 27 28 28 27 26 26 27 28 27 25 25 25 23 23 23 23 24 27 29 30 31 31 29 28 30 30 30 30 29
12 11 10 10 10 10 11 11 12 13 13 14 14 14 15 15 15 15 16 16 17 18 19 20 21 21 22 22 23 23 24 25 25 26 26 26 27 28 29 30 29 28 30 32 32 32 34 38 39 38 36 33 30 27 25 25 26 27 27 27 25 25 26 28 28 25 24 25 25 25 25 25 24 25 27 30 31 30 28 29 31 32 31 31 29
11 11 10 10 10 11 11 11 12 13 13 13 13 13 14 13 14 15 15 16 16 17 19 19 20 21 22 22 23 23 24 25 26 27 27 27 28 29 31 32 30 28 29 31 32 32 33 35 38 39 38 37 36 33 29 25 25 26 27 27 26 25 23 25 28 27 25 25 25 24 25 24 24 25 26 28 29 28 28 30 32 31 31 31 29
12 11 11 11 11 11 11 11 12 12 12 12 12 13 13 13 13 14 15 16 16 16 18 19 20 21 21 22 23 24 25 26 26 27 28 29 29 29 31 33 32 31 31 31 31 31 31 33 36 38 38 39 39 37 34 29 25 24 25 27 28 27 25 24 27 27 26 26 25 23 24 24 25 27 27 26 27 27 28 30 30 28 27 28 27
12 11 12 12 11 12 12 12 11 11 12 12 12 12 12 13 13 14 15 16 16 16 18 19 20 21 21 22 23 24 25 26 26 27 28 30 30 29 29 31 32 33 33 32 30 31 31 32 35 37 38 39 40 39 37 36 31 25 22 23 25 26 26 26 27 26 25 26 25 24 25 24 24 27 28 26 25 25 26 28 28 27 25 25 26
13 12 12 12 11 12 12 11 11 11 12 11 11 11 12 12 13 14 14 15 15 16 17 18 19 20 20 21 22 23 24 25 26 27 28 29 30 30 29 29 30 32 34 34 33 31 31 31 33 35 36 37 39 40 38 38 36 30 22 19 19 20 22 24 26 26 26 26 24 24 26 26 25 25 26 27 25 24 26 26 25 26 27 27 27
13 12 12 11 11 11 11 11 11 11 11 11 11 11 11 12 13 13 14 15 15 16 17 17 18 19 19 21 22 22 23 24 25 26 27 28 30 30 29 28 27 29 32 34 34 32 31 32 31 31 32 34 37 39 39 38 38 35 28 20 16 15 16 18 20 21 23 24 24 25 27 27 26 25 25 27 27 25 25 26 26 26 26 26 27
12 12 12 11 11 11 10 10 11 11 11 11 11 11 12 12 13 13 13 15 15 16 16 17 17 18 19 20 21 22 23 24 25 26 26 27 28 30 30 28 26 27 30 32 33 32 32 31 30 30 31 34 36 38 39 39 39 38 34 28 21 16 13 11 11 12 15 18 22 26 27 26 26 24 23 25 26 24 25 28 29 28 24 23 24
12 12 11 10 10 10 10 11 11 11 11 11 11 12 12 12 12 13 13 14 14 15 15 16 17 17 18 19 20 21 22 23 25 25 25 26 27 28 30 30 27 26 27 29 31 31 30 30 31 31 32 34 36 38 38 38 38 37 36 33 28 23 18 13 8 7 9 13 19 23 26 27 27 24 23 24 25 25 27 28 28 26 23 21 21
12 11 11 10 10 11 11 11 11 11 11 11 12 12 12 12 13 13 13 13 13 14 14 15 16 16 17 18 19 20 20 21 23 25 25 25 26 27 28 29 28 27 27 28 29 30 30 30 31 32 32 33 34 35 36 37 37 36 35 33 32 29 24 19 13 9 8 10 13 16 19 23 25 25 24 25 26 27 27 25 23 23 21 19 18
13 12 11 11 11 11 11 11 11 11 11 12 12 12 12 12 13 13 13 13 13 14 14 14 15 16 16 17 18 19 19 19 21 23 24 25 24 25 28 29 28 27 27 27 28 29 31 30 31 33 34 34 33 32 32 33 35 35 34 32 31 29 26 22 17 13 8 5 6 5 6 12 20 24 23 23 26 27 26 25 24 24 21 18 17
12 12 11 11 11 11 10 10 10 11 11 11 12 12 12 12 13 12 12 13 13 13 14 14 15 15 16 17 18 18 18 19 20 21 24 24 23 24 27 29 29 27 26 27 27 28 30 30 31 33 35 35 34 33 32 31 31 31 32 31 30 28 26 25 22 17 13 10 7 5 4 4 13 21 22 22 24 25 25 26 26 23 19 17 18
11 12 11 11 11 11 10 10 10 10 10 10 11 11 12 13 13 12 12 12 12 13 13 13 14 15 15 16 17 17 16 18 21 22 23 23 23 24 28 29 28 27 26 26 26 26 27 29 31 33 35 36 36 35 34 33 32 31 29 29 28 27 26 24 23 21 18 15 12 9 7 9 11 14 17 19 22 24 25 26 24 20 18 20 22
13 13 12 11 11 11 10 10 10 10 10 10 10 10 11 12 12 11 11 11 11 12 13 13 13 14 15 16 18 17 14 16 21 23 22 22 22 24 28 29 28 27 26 25 25 25 25 27 30 32 34 36 37 36 36 34 34 33 31 28 26 24 24 23 22 21 18 15 13 10 7 8 14 15 14 18 23 25 25 23 21 20 21 23 24
13 13 12 11 11 11 10 10 10 9 9 9 8 9 10 10 11 11 11 11 11 12 13 13 13 14 15 15 17 18 15 15 21 23 21 21 22 23 27 29 27 27 27 25 24 25 23 24 28 31 32 34 36 37 38 37 36 35 34 31 28 24 22 20 19 19 17 13 10 8 7 7 11 16 17 17 21 24 23 22 21 22 24 26 26
13 12 11 11 11 11 10 10 9 8 8 8 8 8 9 10 10 11 11 11 11 12 13 13 13 14 15 15 16 18 17 16 19 23 23 22 22 23 27 30 28 28 28 26 25 26 24 23 26 29 30 32 35 36 38 38 38 37 35 33 31 28 24 21 18 18 19 16 12 9 8 7 8 12 16 17 18 21 22 22 23 24 26 27 27
12 11 11 11 11 11 10 10 9 8 8 7 7 8 8 9 10 11 11 10 11 12 13 13 13 13 15 15 15 17 19 17 18 22 24 24 23 23 26 29 28 27 28 27 26 26 25 23 24 27 30 32 34 35 36 37 37 36 34 33 31 29 28 26 22 18 15 14 13 10 9 10 10 12 16 19 20 20 21 22 23 25 26 26 26
12 11 12 12 12 11 10 9 9 8 8 8 8 9 9 8 9 10 10 10 10 11 11 12 13 13 14 15 15 16 18 18 18 21 24 24 22 22 25 28 29 27 27 27 26 25 25 25 25 27 29 31 33 34 35 35 34 32 30 30 29 28 27 27 26 22 15 10 8 9 10 12 14 15 18 21 22 22 22 22 22 22 22 23 23
12 12 12 12 12 10 10 9 9 8 8 8 8 8 8 9 9 9 10 10 10 10 11 11 12 13 14 15 14 15 16 17 17 19 22 22 22 23 24 26 28 27 26 26 26 25 25 26 26 25 27 30 32 32 32 32 32 31 28 26 25 25 24 24 23 22 19 15 11 9 9 11 12 13 16 18 20 21 21 22 21 20 19 19 19
14 13 13 12 11 10 9 9 8 8 8 8 8 8 8 8 8 8 9 9 9 10 11 12 11 13 15 15 14 14 16 17 16 18 19 19 21 23 24 25 27 27 25 25 25 25 25 26 25 23 24 27 30 31 31 31 32 32 29 26 23 22 22 22 21 20 20 21 19 16 14 12 10 9 10 11 11 11 13 14 13 13 12 12 12
Wind_Direction
94 96 102 97 94 103 105 100 100 102 108 110 104 100 98 94 80 66 67 35 49 116 142 148 186 215 245 256 262 262 268 274 274 276 280 281 283 288 290 291 292 288 285 282 279 275 263 257 257 254 248 243 244 246 243 243 242 242 242 239 237 238 239 237 236 242 242 235 221 212 222 226 226 230 230 230 228 228 227 221 227 226 211 210 218
95 94 103 105 104 110 108 112 117 106 106 110 108 112 125 129 130 124 118 47 12 106 125 141 215 220 236 256 262 261 270 278 274 273 276 278 284 289 289 287 286 284 282 279 278 277 272 268 264 260 257 251 248 246 243 244 244 243 242 239 239 241 242 236 230 232 232 228 221 215 220 226 229 231 229 229 230 229 229 225 224 221 211 210 215
90 91 103 112 111 112 115 116 113 107 113 121 112 112 132 140 146 167 176 263 297 316 299 234 230 227 244 266 277 278 279 281 279 276 276 279 283 286 286 287 287 284 281 278 278 278 276 275 272 266 260 255 250 247 246 245 243 242 240 238 240 242 243 238 231 231 229 225 220 215 214 223 228 230 230 228 231 232 230 228 223 218 212 210 214
89 88 94 112 118 112 110 112 115 120 124 123 114 110 114 95 66 13 5 358 333 341 330 276 237 230 272 284 289 292 293 293 291 288 286 287 287 288 290 291 291 289 286 283 280 281 278 274 273 270 263 257 253 250 249 247 243 240 239 239 240 242 243 241 234 232 229 223 218 212 211 221 225 228 233 230 230 230 227 227 224 219 217 215 215
91 89 84 98 113 107 98 103 117 124 113 104 109 110 108 103 86 63 43 37 19 7 353 335 35 9 302 304 308 306 307 303 301 303 299 297 295 294 292 292 292 290 289 286 284 283 281 277 276 273 266 260 256 253 250 249 246 239 235 238 240 241 245 246 240 233 229 224 218 213 210 216 220 222 231 230 228 227 225 224 224 223 224 224 218
90 90 84 83 92 97 94 97 111 117 107 95 95 99 104 114 109 89 66 57 46 20 355 349 26 0 320 314 319 317 312 308 308 312 309 305 303 300 296 294 292 292 291 290 288 285 283 280 278 275 270 264 260 257 253 250 247 240 233 235 238 240 245 247 243 234 229 227 222 220 220 220 220 213 215 222 224 225 225 224 225 226 226 225 219
92 89 84 79 78 82 84 81 84 92 101 106 109 103 101 100 100 88 64 40 58 54 348 332 329 329 320 315 318 316 311 309 307 307 306 307 305 302 299 295 295 295 293 291 289 287 284 279 276 275 273 270 266 261 257 253 250 246 239 237 235 235 239 244 244 237 231 229 226 225 224 222 221 214 212 217 220 222 223 222 224 224 222 220 216
90 86 81 79 75 74 74 71 73 71 68 83 103 115 113 108 111 111 108 73 64 94 288 317 322 321 314 305 301 303 306 304 302 302 302 303 302 300 299 298 296 295 293 292 290 287 282 279 278 277 276 276 274 267 262 257 252 248 243 238 233 232 235 241 244 239 233 231 229 228 223 218 224 222 214 214 216 220 220 219 219 221 222 219 213
83 81 80 80 77 75 73 68 70 70 61 58 66 82 103 113 120 179 208 224 224 204 240 332 332 315 302 298 293 290 289 287 289 292 294 296 297 297 296 296 295 293 296 296 294 291 283 280 280 280 280 281 281 276 269 262 254 250 245 239 234 233 235 238 241 237 233 233 232 232 228 222 227 228 218 214 213 215 216 218 218 217 219 218 213
77 77 76 75 75 73 71 66 62 60 57 55 56 60 75 82 59 15 232 239 241 237 249 268 278 276 279 288 290 291 290 288 290 289 286 289 295 298 299 298 295 293 293 293 292 292 288 284 281 281 283 284 283 279 272 266 259 253 247 240 234 234 235 235 236 234 233 234 233 234 233 228 227 225 222 220 216 216 218 220 219 216 215 213 211
77 73 70 68 67 63 60 59 57 53 49 47 48 45 51 58 40 23 9 331 301 243 233 236 246 258 270 281 291 296 299 299 303 304 300 301 302 301 302 302 299 295 291 290 290 292 292 290 285 280 283 285 283 278 272 269 263 254 248 242 234 233 234 233 234 232 231 235 234 235 239 236 230 226 225 224 222 223 224 224 223 220 220 218 214
78 69 64 63 60 55 51 50 48 47 47 42 39 39 38 40 33 23 16 7 3 349 305 246 239 251 262 273 283 288 294 298 305 308 307 309 306 302 302 302 302 299 295 293 291 292 297 295 289 284 285 286 286 284 277 271 265 255 247 242 235 232 234 234 235 233 232 236 237 236 240 239 235 231 229 228 228 229 229 229 226 219 218 221 220
74 65 59 56 54 51 47 46 44 43 45 42 40 41 38 36 32 23 13 6 5 8 9 357 323 294 273 265 271 277 280 285 293 295 297 305 307 306 306 304 305 304 298 292 289 291 298 298 293 290 288 285 288 289 282 274 267 253 241 238 234 233 235 236 239 239 237 237 238 237 237 235 235 234 230 230 230 229 228 229 228 220 214 210 214
71 64 59 54 52 52 47 46 47 45 45 44 42 43 42 38 33 24 16 9 7 6 359 352 354 350 318 285 285 291 287 287 289 284 287 301 307 309 311 308 307 307 302 295 292 294 297 298 297 295 291 287 286 288 282 276 267 248 236 236 236 235 236 237 240 242 241 239 237 236 236 235 236 233 230 231 229 223 222 224 221 221 217 206 205
74 66 61 58 54 54 52 48 49 49 49 46 42 43 44 40 35 32 28 21 14 6 356 354 352 347 342 332 321 314 305 302 300 288 285 293 300 310 315 312 311 310 308 302 297 298 298 297 299 298 295 289 285 282 277 270 264 247 235 237 239 237 237 239 240 242 242 239 235 236 237 238 237 233 230 231 228 221 219 221 217 217 218 207 204
77 70 63 59 58 56 54 52 50 51 51 48 44 40 40 42 37 31 34 33 27 17 6 2 352 346 358 357 344 339 329 317 311 300 288 283 289 302 309 308 310 309 309 309 305 304 301 297 297 298 298 294 288 284 279 271 263 251 241 239 240 239 238 241 242 242 240 237 234 235 237 238 237 234 234 233 229 223 220 218 215 215 214 204 197
78 74 66 58 59 59 56 56 54 53 53 50 47 39 34 41 36 26 26 27 28 22 4 356 353 355 15 5 345 346 345 331 322 312 299 290 290 293 292 295 303 306 308 310 310 309 305 300 298 298 299 296 291 289 288 283 269 256 249 246 245 245 244 244 243 239 237 235 233 232 235 238 235 232 233 231 227 225 222 219 214 213 212 205 198
83 77 70 61 62 62 61 61 57 56 54 49 45 39 36 42 37 25 19 16 30 33 10 353 353 359 33 20 350 346 346 335 329 320 312 308 302 297 293 292 297 303 307 308 308 309 306 304 302 300 298 295 294 295 294 291 278 261 254 250 248 249 248 248 244 237 233 233 232 231 234 236 235 232 232 230 228 227 225 221 216 214 214 214 211
84 76 70 66 66 65 65 64 59 56 53 48 44 38 38 41 33 27 22 16 36 38 11 353 355 353 16 23 355 346 342 337 339 334 328 324 318 313 309 303 299 298 301 305 308 310 308 305 304 302 298 296 298 299 297 296 288 272 263 258 253 251 250 251 248 238 232 232 231 232 235 235 234 234 234 231 229 227 223 217 216 219 221 221 220
84 80 75 71 70 69 69 64 59 57 52 49 47 40 41 39 32 39 35 20 31 29 4 352 359 353 358 5 358 354 347 347 350 344 341 340 334 330 327 323 313 303 298 297 299 305 309 309 306 303 302 300 300 297 292 294 292 279 273 272 266 258 253 253 251 241 234 234 234 235 237 236 234 234 234 232 229 226 223 219 217 222 226 226 224
89 86 80 77 77 73 71 64 59 59 56 53 50 43 43 42 37 42 43 28 25 27 17 7 3 1 4 3 0 359 354 357 356 348 347 351 347 342 338 335 328 317 309 300 293 292 297 306 311 308 306 306 304 299 292 290 291 284 278 278 273 264 257 253 250 244 238 236 237 238 239 236 234 233 233 233 231 226 224 224 223 224 226 227 225
94 92 89 86 82 74 69 65 61 59 57 52 48 43 40 42 38 36 39 32 24 26 23 11 5 6 7 5 3 2 0 359 356 353 353 354 351 347 341 338 335 330 325 317 307 296 288 293 305 309 307 306 306 305 299 294 292 288 283 281 276 269 263 255 248 244 240 238 238 239 238 235 234 235 235 235 232 227 225 225 225 225 224 222 223
99 99 97 88 82 75 70 67 62 58 56 53 50 45 39 41 41 35 35 33 27 26 19 8 10 10 7 7 5 3 2 358 356 358 355 352 352 351 347 344 340 336 332 329 324 314 298 288 294 306 308 305 305 305 302 296 293 290 286 282 276 273 270 260 250 244 241 238 237 238 238 236 234 234 235 236 233 228 226 224 223 224 224 222 223
104 101 97 93 86 78 72 70 65 58 57 55 49 44 40 40 40 35 33 31 28 26 18 12 15 12 7 7 3 0 1 359 358 359 356 354 356 354 351 348 345 340 336 332 329 323 313 299 290 299 307 306 303 303 300 296 294 292 287 281 276 275 275 268 258 251 247 242 240 241 240 238 236 236 237 237 234 230 228 226 226 227 228 226 224
105 98 91 90 84 72 67 68 65 57 55 54 47 42 40 38 37 35 32 28 26 25 19 15 15 12 9 6 2 0 2 360 360 359 356 357 359 355 352 352 349 345 341 336 331 325 321 314 298 292 300 303 300 298 299 299 298 294 289 283 279 276 276 273 264 256 251 246 243 244 242 240 240 241 240 239 236 232 230 230 230 230 230 229 225
104 96 87 80 67 59 62 63 57 51 49 48 45 42 39 36 35 36 31 24 25 26 21 15 12 9 10 7 3 3 3 1 2 360 356 359 0 355 355 356 353 350 348 343 338 331 326 323 315 299 293 296 299 300 301 301 302 300 294 289 286 281 277 273 264 257 254 249 245 244 242 239 240 241 240 238 236 235 233 231 230 228 226 226 225
101 94 86 76 62 54 55 52 46 44 44 43 43 40 37 35 34 35 30 24 25 26 21 16 12 9 10 8 5 5 4 2 2 360 358 1 1 358 359 1 358 355 354 351 346 340 333 329 326 317 299 291 298 307 303 295 294 297 295 292 291 288 283 275 264 259 256 252 248 246 243 239 237 239 240 238 235 236 234 230 228 227 225 228 231
99 92 83 77 71 63 57 50 45 44 43 43 42 39 36 35 34 32 28 24 26 27 22 18 13 11 12 9 5 7 6 3 3 2 2 3 3 2 3 4 4 2 0 358 354 348 342 335 331 326 312 295 293 299 297 292 293 294 291 289 289 287 284 276 264 258 254 253 254 252 248 244 238 236 240 240 236 233 231 228 228 228 228 231 233
97 90 82 78 75 70 63 57 52 49 46 44 41 39 37 35 34 32 29 24 25 26 22 19 16 15 14 9 7 10 7 4 6 5 2 2 4 5 5 7 8 7 5 6 4 358 352 345 338 332 321 305 293 290 290 292 297 298 293 287 284 282 279 273 263 256 253 255 256 252 247 244 238 234 237 241 237 232 230 231 231 228 226 225 225
99 91 87 82 77 72 65 60 54 50 48 45 41 39 37 35 33 32 30 25 24 25 22 20 18 16 13 10 10 11 7 6 8 6 2 2 3 3 5 7 9 8 7 9 10 10 6 0 353 345 333 319 304 293 287 285 289 295 295 287 281 279 277 272 265 261 258 257 256 252 247 243 238 235 236 236 232 230 230 231 228 225 223 222 219
103 97 92 85 78 74 67 61 55 51 48 45 42 40 38 36 34 32 31 27 24 24 23 20 19 16 13 12 12 11 9 9 8 6 5 4 3 2 3 5 7 8 7 7 10 13 14 12 7 0 350 337 323 305 292 286 284 288 292 289 282 277 273 268 264 262 261 257 254 252 248 243 239 239 239 235 231 230 231 228 224 225 226 225 223
107 101 96 88 80 74 66 61 56 52 49 46 44 42 39 38 36 33 32 30 26 25 25 23 21 18 16 15 13 11 11 10 8 7 6 5 5 4 3 4 7 6 3 4 7 9 11 13 13 10 5 356 343 325 308 298 291 286 285 286 284 276 270 267 263 259 258 259 258 251 243 239 240 242 242 238 233 230 230 227 224 226 228 227 228
110 105 99 88 81 74 66 62 58 53 51 49 46 44 42 39 37 35 34 31 28 27 27 25 22 20 18 16 14 12 12 11 9 8 6 5 6 7 6 7 7 4 360 1 5 4 5 9 12 12 11 6 358 346 328 313 303 293 286 283 282 276 268 264 262 259 257 260 258 248 239 237 241 243 242 239 235 230 227 226 224 225 228 228 227
110 107 101 90 83 76 68 64 60 55 54 51 48 47 44 40 38 36 34 33 30 27 26 24 23 21 18 17 16 14 14 12 11 9 8 7 6 5 6 7 8 6 1 359 2 2 0 2 7 10 11 10 6 359 349 331 314 303 294 286 282 279 271 263 260 259 259 263 261 249 240 241 244 243 239 238 238 234 228 225 224 224 226 227 223
112 109 101 90 84 79 73 67 62 59 56 53 50 48 44 41 39 36 34 33 30 27 25 23 22 20 19 18 17 15 15 14 12 10 9 9 8 5 4 5 7 6 3 0 2 3 359 357 1 6 7 8 8 5 2 353 334 314 302 294 287 282 276 268 262 259 256 258 260 252 243 242 243 242 239 235 236 238 233 228 227 227 224 221 220
113 111 101 94 87 80 75 70 66 63 59 55 52 49 45 43 40 37 36 33 29 28 26 22 21 20 18 17 17 16 15 15 14 12 9 9 10 7 4 5 5 4 3 3 5 6 2 357 359 3 5 7 7 5 5 4 355 336 314 302 295 289 282 275 270 264 256 253 255 254 251 246 241 239 237 234 234 238 237 232 231 232 229 224 221
114 109 102 96 89 82 78 73 69 66 60 56 54 51 48 45 41 38 36 33 29 28 26 22 21 19 16 16 17 17 16 15 14 14 11 9 8 8 7 7 6 4 4 5 6 7 7 3 1 3 5 7 8 5 4 6 5 357 339 317 307 301 292 282 277 271 260 254 252 250 250 250 245 238 234 232 231 232 234 233 233 234 233 229 225
116 110 104 98 89 84 80 74 71 68 62 58 55 52 49 45 42 39 36 33 30 27 25 23 22 19 16 16 16 18 19 16 15 16 14 10 8 8 9 11 10 6 3 4 6 7 9 9 7 6 7 9 10 8 6 7 9 7 0 349 337 325 308 293 287 282 270 259 252 246 243 244 243 238 232 227 222 222 227 229 228 227 223 219 220
118 112 106 100 93 87 82 75 72 67 61 59 56 55 52 47 42 39 36 33 28 25 23 22 22 20 17 16 17 19 20 17 16 16 15 13 10 8 8 11 14 11 4 4 7 7 7 10 13 13 14 15 14 12 11 10 11 12 10 6 1 353 337 316 296 285 273 260 253 249 243 239 237 234 228 219 213 218 227 226 221 218 211 207 211
121 114 106 101 94 88 83 77 71 67 62 60 59 56 52 47 43 39 36 32 27 25 23 21 22 20 18 17 16 17 19 19 19 18 16 14 13 11 8 8 12 13 8 6 8 8 7 12 17 16 16 17 16 16 16 14 13 14 15 13 10 6 358 345 317 274 253 240 239 239 234 232 233 229 220 210 208 217 225 221 215 211 204 201 207
127 119 108 102 95 88 84 79 74 70 65 61 59 56 51 48 44 40 36 31 28 27 23 22 22 20 18 17 14 15 19 19 18 18 16 14 12 12 12 9 8 11 11 10 12 11 9 12 18 17 15 14 13 13 15 17 17 16 17 18 17 14 7 353 334 305 269 236 228 224 217 217 221 219 214 212 211 213 214 210 205 203 198 197 203
130 123 111 103 98 92 86 80 76 71 66 62 59 55 50 47 43 39 36 32 30 28 25 24 23 20 19 18 14 14 16 15 15 17 15 12 10 11 13 12 8 9 11 11 13 15 14 15 21 23 21 18 14 10 11 14 17 18 19 21 21 20 15 5 352 336 321 296 267 243 202 203 211 211 211 213 208 201 200 200 198 195 193 194 199
127 122 115 106 101 95 86 81 77 71 66 62 57 53 50 45 41 37 34 34 33 29 26 26 25 23 22 21 16 14 15 15 17 17 14 13 10 6 8 10 10 10 11 10 11 13 15 17 20 22 23 22 18 16 13 12 13 15 17 20 23 23 21 19 16 12 8 7 359 1 63 146 201 207 206 206 200 190 187 189 191 191 189 189 188
119 119 115 107 101 96 88 82 76 70 66 60 55 53 49 43 40 36 31 32 33 29 27 28 27 25 25 23 20 18 14 12 15 16 15 15 10 3 5 10 12 13 12 10 8 9 11 15 18 18 18 18 17 17 16 15 14 13 13 16 19 23 24 24 25 25 23 23 23 23 49 97 145 180 194 194 189 185 181 177 178 181 179 178 178
117 116 111 105 101 95 88 82 75 69 66 60 55 53 48 43 40 36 31 31 31 30 29 29 30 28 25 22 21 19 13 10 13 15 16 16 11 5 7 12 13 14 14 11 8 7 5 8 13 15 15 14 13 13 14 14 15 15 14 13 13 17 21 24 28 31 29 27 33 35 38 86 115 136 163 172 166 167 173 172 168 168 169 171 173
118 115 110 106 101 93 88 84 77 70 65 61 57 54 48 43 39 35 34 33 31 33 32 29 27 28 24 21 21 21 17 9 11 14 17 17 15 10 10 12 12 13 15 12 9 8 5 3 7 12 14 13 11 11 11 12 12 13 14 14 13 13 16 21 28 36 36 31 37 50 44 51 92 118 140 153 147 147 159 168 167 165 166 168 170
118 115 113 110 103 96 91 84 78 70 66 65 62 55 49 45 41 37 36 33 30 33 34 30 27 27 24 21 21 22 19 11 10 14 16 15 15 13 11 11 10 11 13 12 10 10 9 4 4 8 12 12 11 11 11 11 11 11 11 12 14 15 16 17 22 34 43 44 43 57 69 65 80 106 122 136 140 139 147 156 160 162 162 162 164
119 115 114 112 106 102 95 86 79 72 69 68 62 53 49 47 43 38 36 35 34 34 35 33 29 26 24 23 21 20 21 16 11 13 13 10 11 12 11 11 11 10 11 11 10 10 10 6 3 4 8 10 10 11 11 10 10 9 8 8 11 15 17 17 18 24 37 47 47 53 74 92 103 109 111 117 125 129 133 137 143 151 153 150 151
120 116 115 113 108 103 95 88 81 75 73 71 62 54 51 49 44 38 36 37 36 34 34 33 28 24 23 24 21 18 19 18 12 9 8 5 7 12 11 11 11 10 10 11 10 8 8 7 4 4 7 8 8 7 8 8 8 8 8 8 11 15 18 19 18 16 13 19 35 48 66 83 95 104 106 107 111 116 119 119 122 129 134 135 136
122 117 115 112 107 103 97 90 83 77 74 70 64 58 54 48 43 38 37 37 34 32 32 29 26 24 21 20 18 15 16 16 13 10 6 3 5 9 9 9 10 9 7 9 10 9 8 6 4 5 9 9 7 5 4 6 9 9 9 10 12 14 18 20 20 18 16 18 25 37 51 63 71 83 94 99 102 108 113 114 116 120 125 126 126
123 119 116 113 107 103 99 92 85 79 72 68 65 61 53 46 41 38 37 36 34 32 28 22 23 25 20 14 13 13 12 13 13 12 9 7 6 6 3 3 6 7 5 5 8 10 8 5 4 6 9 9 7 6 5 6 9 10 9 11 14 16 19 23 22 22 29 37 39 41 44 45 45 52 66 76 84 94 104 111 120 130 135 138 138